sat.trackr.live / text

‹ back to catalog

STARLINK-30391

NORAD 57817 · 2023-138K

PAYLOAD ACTIVE UNKNOWN

§ Identity

Operator
Country
US
Launch date
2023-09-09
Launch site
AFETR
Launch vehicle
Mass (kg)
RCS (m²)

Purposes: comms

External: N2YO · Heavens-Above · Gunter

§ Orbital elements

Epoch: 2026-05-24T11:08:58.200000Z

Period
94.27 min
Inclination
43.0006°
Eccentricity
0.0001806
Mean motion
15.27600766 rev/d
Perigee alt
481.7 km
Apogee alt
484.2 km
Semi-major
6,861.1 km
B*
-7.6599e-5
RAAN
166.5413°
Arg perigee
276.6814°
Mean anomaly
83.3832°
Rev number
15,032

§ Raw data

STARLINK-303911 57817U 23138K   26144.46456250 -.00002371  00000+0 -76599-4 0  99982 57817  43.0006 166.5413 0001806 276.6814  83.3832 15.27600766150326

JSON: /api/v1/satellites/57817 · /tle

For live sub-satellite position, see the globe view (requires WebGL).

§ Visibility from observer

Set your observer location to see the next 7 days of passes ≥ 10°. The values pass through the URL so the page stays shareable.

No JS? Fill the form by hand. The geolocation button needs JavaScript.